Location: Newark
(51.0089°N, 21.5817°E)
Time: 21:22:05
(UTC+00:00)

ISS - Visible Passes

Search period start: 12 December 2019 00:00
Search period end: 22 December 2019 00:00
Orbit: 411 x 421 km, 51.6° (Epoch: 13 December)

Date Brightness Start Highest point End Pass type
(mag) Time Alt. Az. Time Alt. Az. Time Alt. Az.
12 Dec -0.4 15:52:02 10° WSW 15:53:33 12° SW 15:55:03 10° SSW visible
13 Dec -0.7 15:02:53 10° W 15:05:17 18° SW 15:07:41 10° S visible
21 Dec -0.6 05:22:38 10° S 05:24:33 15° SE 05:26:29 10° ESE visible
